Regional Weather Roundup
Issued by NWS Bismarck, ND

Home | Current Version | Previous Version | Text Only | Print | Product List | Glossary On
Versions: 1 2 3 4 5 6 7 8 9 10 11 12 13 14 15 16 17 18 19 20 21 22 23 24 25 26 27 28 29 30 31 32 33 34 35 36 37 38 39 40 41 42 43 44 45 46 47 48 49 50
000
ASUS43 KBIS 171710
RWRBIS

NWR BROADCAST TEXT
NATIONAL WEATHER SERVICE BISMARCK ND
1100 AM CST FRI NOV 17 2017

NOTE: "FAIR" INDICATES FEW OR NO CLOUDS BELOW 12,000 FEET WITH NO
SIGNIFICANT WEATHER AND/OR OBSTRUCTIONS TO VISIBILITY.


CITY           SKY/WX    TMP DP  RH WIND       PRES   REMARKS
WILLISTON      SUNNY     22  11  62 SE5       29.71S WCI  16
MINOT          MOSUNNY   20  10  65 SW7       29.72R WCI  11
MINOT AFB      PTSUNNY   17   9  72 NW8       29.71R WCI   6
BISMARCK       CLOUDY    34  23  64 N7        29.72S
DICKINSON      MOSUNNY   35  25  66 CALM      29.65S
GARRISON         N/A     23  15  71 NW6       29.71R WCI  16
HETTINGER ARPT CLOUDY    37  27  67 SW3       29.68S
JAMESTOWN      CLOUDY    29  18  63 NW17      29.69R WCI  17
CARRINGTON     FAIR      21  16  79 NW16      29.74R WCI   7
HAZEN          FAIR      27  21  80 NW7       29.73F WCI  19
LINTON           N/A     36  23  60 NW7       29.73R
MANDAN         FAIR      28  19  69 NE6       29.70F
OAKES            N/A     37  32  81 MISG      29.68R
RUGBY          FAIR      16  10  79 W10       29.73R WCI   3
STANLEY        FAIR      16  12  86 SW5       29.70F WCI   9
TIOGA          FAIR      16  10  79 W3        29.70S
WATFORD CITY   FAIR      21  14  73 CALM      29.69F
$$

CITY           SKY/WX    TMP DP  RH WIND       PRES   REMARKS
GRAND FORKS    CLOUDY    27  18  69 NW15      29.70R WCI  15
GRAND FORKS AF CLOUDY    24  16  70 NW13      29.71R WCI  13
DEVILS LAKE    MOSUNNY   17  12  80 W14       29.72R WCI   3
FARGO          CLOUDY    37  29  72 NW12      29.67R
CANDO          FAIR      16  14  93 NW13      29.73R WCI   2
CAVALIER       FAIR      19  12  73 W8        29.68S WCI   9
GRAFTON        FAIR      21  14  73 NW16      29.71R WCI   7
GWINNER          N/A     37  28  70 NW17      29.66R
LANGDON        FAIR      16  12  86 W15       29.67R WCI   1
ROLLA          FAIR      18  10  73 CALM      29.69R
WALHALLA       FAIR      19  12  73 NW15      29.68R WCI   5
$$

CITY           SKY/WX    TMP DP  RH WIND       PRES   REMARKS
ABERDEEN       CLOUDY    42  32  67 N13       29.68R
MOBRIDGE       CLOUDY    42  31  64 N3        29.68S
BUFFALO          N/A     42  34  73 W9        29.59F
RAPID CITY     CLOUDY    39  36  89 CALM      29.68F
GLASGOW        SUNNY     26  24  92 SE8       29.63R WCI  18
SIDNEY         MOSUNNY   26  23  88 NE5       29.69F
WOLF POINT     SUNNY     25  19  78 E9        29.67S WCI  15
GLENDIVE       PTSUNNY   33  26  75 S5        29.65S
MILES CITY     MOSUNNY   38  34  85 S5        29.64F
BAKER          MOSUNNY   39  33  79 MISG      29.65S
$$

CITY           SKY/WX    TMP DP  RH WIND       PRES   REMARKS
BILLINGS       CLOUDY    37  32  82 SW9       29.65R
GREAT FALLS    SUNNY     37  21  52 SW14      29.62R
REGINA         MOSUNNY    5   1  85 W6        29.68R WCI  -6
ESTEVAN        MOSUNNY   14   7  73 W8        29.70R WCI   3
$$




USA.gov is the U.S. government's official web portal to all federal, state and local government web resources and services.